TimeCST,TemperatureF,Dew PointF,Humidity,Sea Level PressureIn,VisibilityMPH,Wind Direction,Wind SpeedMPH,Gust SpeedMPH,PrecipitationIn,Events,Conditions,WindDirDegrees,DateUTC
12:53 AM,-0.0,-8.0,69,30.43,10.0,West,9.2,-,N/A,,Clear,280,2013-02-01 06:53:00
1:53 AM,-0.9,-9.0,69,30.44,10.0,West,9.2,-,N/A,,Clear,280,2013-02-01 07:53:00
2:53 AM,-2.0,-9.9,69,30.45,10.0,West,11.5,-,N/A,,Clear,280,2013-02-01 08:53:00
3:53 AM,-4.0,-11.0,72,30.45,10.0,West,6.9,-,N/A,,Clear,280,2013-02-01 09:53:00
4:53 AM,-4.0,-11.0,72,30.45,10.0,WNW,8.1,-,N/A,,Clear,300,2013-02-01 10:53:00
5:53 AM,-5.1,-11.9,72,30.45,10.0,West,6.9,-,N/A,,Clear,280,2013-02-01 11:53:00
6:53 AM,-6.0,-13.0,72,30.46,10.0,West,8.1,-,N/A,,Clear,260,2013-02-01 12:53:00
7:53 AM,-6.0,-11.0,79,30.47,10.0,West,4.6,-,N/A,,Clear,260,2013-02-01 13:53:00
8:53 AM,-4.0,-11.0,72,30.48,10.0,WSW,6.9,-,N/A,,Clear,250,2013-02-01 14:53:00
9:53 AM,-2.0,-9.0,72,30.46,10.0,WNW,4.6,-,N/A,,Clear,290,2013-02-01 15:53:00
10:53 AM,-0.0,-8.0,69,30.46,10.0,Variable,3.5,-,N/A,,Clear,0,2013-02-01 16:53:00
11:53 AM,3.0,-6.0,66,30.43,10.0,SSW,5.8,-,N/A,,Overcast,200,2013-02-01 17:53:00
12:53 PM,7.0,-4.0,61,30.40,10.0,SSW,11.5,-,N/A,,Overcast,200,2013-02-01 18:53:00
1:53 PM,8.1,-2.9,61,30.35,10.0,SSW,9.2,-,N/A,,Overcast,200,2013-02-01 19:53:00
2:53 PM,10.0,-0.9,61,30.33,10.0,South,10.4,-,N/A,,Overcast,190,2013-02-01 20:53:00
3:53 PM,12.0,1.0,61,30.30,10.0,South,11.5,-,N/A,,Overcast,170,2013-02-01 21:53:00
4:53 PM,14.0,1.9,59,30.27,10.0,South,13.8,-,N/A,,Overcast,180,2013-02-01 22:53:00
5:53 PM,15.1,3.9,61,30.25,10.0,South,9.2,-,N/A,,Overcast,180,2013-02-01 23:53:00
6:53 PM,16.0,5.0,62,30.21,10.0,South,11.5,-,N/A,,Mostly Cloudy,170,2013-02-02 00:53:00
7:53 PM,17.1,8.1,68,30.20,10.0,South,5.8,-,N/A,,Overcast,170,2013-02-02 01:53:00
8:53 PM,18.0,10.0,71,30.18,10.0,South,6.9,-,N/A,,Mostly Cloudy,190,2013-02-02 02:53:00
9:53 PM,21.0,12.0,68,30.15,10.0,SSW,16.1,-,N/A,,Overcast,200,2013-02-02 03:53:00
10:53 PM,24.1,14.0,65,30.14,10.0,SSW,15.0,-,N/A,,Overcast,210,2013-02-02 04:53:00
11:53 PM,25.0,12.9,60,30.11,10.0,SW,17.3,24.2,N/A,,Overcast,220,2013-02-02 05:53:00